Miscellaneous Local Product
Issued by NWS North Platte, NE

Home | Current Version | Previous Version | Text Only | Print | Product List | Glossary On
Versions: 1 2 3 4 5 6 7 8 9 10 11 12 13 14 15 16 17 18 19 20 21 22 23 24 25 26 27 28 29 30 31 32 33 34 35 36 37 38 39 40 41 42 43 44 45 46 47 48 49 50
000
AXUS43 KLBF 251810
MISLBF


WESTERN AND NORTH CENTRAL NEBRASKA HOURLY WEATHER ROUNDUP
NATIONAL WEATHER SERVICE NORTH PLATTE NE
100 PM CDT THU AUG 25 2016

NOTE: "FAIR" INDICATES FEW OR NO CLOUDS BELOW 12,000 FEET WITH NO
SIGNIFICANT WEATHER AND/OR OBSTRUCTIONS TO VISIBILITY.

NOTE: STATIONS NOT REPORTING VARIABLES SUCH AS SKY/WEATHER OR
PRESSURE ARE PROVIDED BY RAWS AND APRS NETWORKS AND ARE NOT UNDER
NATIONAL WEATHER SERVICE QUALITY CONTROL.

...OBSERVATIONS IN AND NEAR THE EASTERN PANHANDLE OF NEBRASKA...

CITY           SKY/WX    TMP DP  RH WIND       PRES   REMARKS
PINE RIDGE     CLOUDY    58  49  72 CALM      30.30F
CHADRON        CLOUDY    61  47  59 S3        30.30F
ALLIANCE       MOSUNNY   63  44  50 NE7       30.30F
SIDNEY         SUNNY     68  45  43 NE10G21   30.29F
CRESCENT LAKE    N/A     66  44  45 NE7G15      N/A
$$

...OBSERVATIONS IN NORTHERN NEBRASKA AND FAR SOUTHERN SOUTH DAKOTA...

CITY           SKY/WX    TMP DP  RH WIND       PRES   REMARKS
WINNER         FAIR      70  49  47 NW14      30.24S
VALENTINE      SUNNY     68  43  40 N10       30.25F
THEDFORD       SUNNY     70  47  44 N7        30.26F
AINSWORTH      SUNNY     67  50  54 N14       30.25F
O`NEILL        MOSUNNY   70  48  44 NW9       30.23F
ORD            SUNNY     72  49  44 N9        30.21S
BROKEN BOW     SUNNY     71  50  47 N9        30.23F
VALENTINE NWR    N/A     66  48  52 N10G18      N/A
BUTTE            N/A     66  52  60 W12         N/A
HALSEY           N/A     69  45  41 N6G15       N/A
EWING            N/A     71  53  53 NW8         N/A
$$

...OBSERVATIONS IN SOUTHWEST NEBRASKA AND FAR NORTHEAST COLORADO...

CITY           SKY/WX    TMP DP  RH WIND       PRES   REMARKS
WRAY           FAIR      73  41  31 E10       30.26
HOLYOKE        FAIR      73  45  35 E8G16     30.27F
IMPERIAL       SUNNY     72  42  34 SE7       30.25S
OGALLALA       SUNNY     73  41  31 NE8       30.26F
NORTH PLATTE   SUNNY     75  49  39 N10       30.24F
MCCOOK         SUNNY     74  50  42 E8        30.22F
LEXINGTON      SUNNY     73  50  45 NE3       30.22F
STAPLETON        N/A     69  50  50 NE3         N/A
GOTHENBURG       N/A     70  48  44 E7          N/A
CALLAWAY         N/A     70  55  57 NE9         N/A
$$

...OBSERVATIONS IN CENTRAL LINCOLN COUNTY AREA...

CITY           SKY/WX    TMP DP  RH WIND       PRES   REMARKS
N.P. AIRPORT   SUNNY     75  49  39 N10       30.24F
N.P. DOWNTOWN    N/A     70  49  47 NE8         N/A
N.P. HILLCREST   N/A     70  48  45 E10G17      N/A
$$

...SOME OBSERVATIONS FROM AROUND THE REGION...

CITY           SKY/WX    TMP DP  RH WIND       PRES   REMARKS
DENVER         MOSUNNY   64  46  52 VRB3      30.29F
LARAMIE        SUNNY     63  39  41 SE17G35   30.30F
CHEYENNE       MOSUNNY   59  43  55 E8        30.33F
SCOTTSBLUFF    CLOUDY    65  44  46 E10       30.30F
RAPID CITY     CLOUDY    64  44  48 N8        30.28F
BISMARCK       CLOUDY    63  49  60 W10       30.18R
PIERRE         PTSUNNY   69  47  45 W16G24    30.20F
SIOUX FALLS    PTSUNNY   70  54  56 W12       30.16S
OMAHA          CLOUDY    71  63  75 N9        30.14S
GRAND ISLAND   CLOUDY    73  55  53 VRB7      30.19F
KANSAS CITY    MOSUNNY   80  69  69 VRB6      30.07F
WICHITA        CLOUDY    81  66  60 W6        30.09S
OKLAHOMA CITY  PTSUNNY   93  67  42 W10       30.08F HX  96
DALLAS         PTSUNNY   92  65  40 S8        30.08F HX  94
AMARILLO       PTSUNNY   75  62  64 NW8       30.20F
DODGE CITY     CLOUDY    64  60  87 N12       30.19S
HAYS           CLOUDY    73  52  46 NE13      30.17F
GOODLAND       SUNNY     73  49  42 E9G20     30.24F
$$




USA.gov is the U.S. government's official web portal to all federal, state and local government web resources and services.